Location: Eekst
(53.0191°N, 6.7366°E)
Time: 12:32:27
(UTC+00:00)

Cosmos 1833 - Pass Details

Date: 15 May 2026
Orbit: 833 x 865 km, 70.9° (Epoch: 8 June)

Event Time Altitude Azimuth Distance (km) Brightness Sun altitude
Exits shadow 21:44:10 - 201° (SSW) 2,546 6.3 -14.4°
Reaches altitude 10° 21:44:24 10° 201° (SSW) 2,458 6.2 -14.4°
Maximum altitude 21:50:01 73° 118° (ESE) 881 4.1 -14.8°
Drops below altitude 10° 21:55:37 10° 34° (NE) 2,457 7.1 -15.1°
Sets 21:58:04 0° 33° (NNE) 3,393 7.9 -15.3°
